Location: Banff
(51.1667°N, 115.5667°W)
Time: 06:53:37
(UTC+00:00)

S-56A Canister/Altair - Pass Details

Date: 26 November 2020
Orbit: 633 x 2499 km, 38.9° (Epoch: 21 January)

Event Time Altitude Azimuth Distance (km) Brightness Sun altitude
Rises 07:23:26 0° 258° (WSW) 4,234 - -59.9°
Reaches altitude 10° 07:27:17 10° 246° (WSW) 2,933 - -59.9°
Maximum altitude 07:32:25 23° 196° (SSW) 1,768 - -59.9°
Drops below altitude 10° 07:36:29 10° 144° (SE) 2,255 - -59.8°
Sets 07:39:01 0° 129° (SE) 3,044 - -59.8°
